Voltar ao catálogo

COSMOS 2251 DEB

AtivoLEO
NORAD 40796·DEBRIS·🇷🇺 Russia

Lançado Jun 16, 1993 de Plesetsk Cosmodrome

Loading…

Próximas Passagens (próximas 24 horas)

TLE

AtualizadoSource: Space-Track

Época: Sep 13, 2026, 22:32 UTC

1 40796U 93036BVZ 26256.93956029  .00003061  00000-0  35625-3 0  9995
2 40796  74.0120 316.2829 0052678  20.7033 151.9545 14.84766288802392

Acompanhe COSMOS 2251 DEB em tempo real com AllMySat

Download on the App Store